| time (UTC) | temp C | wind direction | speed KPH | gust KPH | rain 1hr cm | rain 24hr cm | rain mn cm | humidity % | barometer mb |
| 20260906094720 | 20 | 35 | 0.0 | 0.0 | 0.00 | 0.00 | 0.00 | 99 | 1055.0 |
| 20260906093718 | 21 | 23 | 0.0 | 1.6 | 0.00 | 0.00 | 0.00 | 99 | 1054.9 |
| 20260906092714 | 21 | 352 | 0.0 | 0.0 | 0.00 | 0.00 | 0.00 | 99 | 1055.0 |
| 20260906091710 | 21 | 304 | 0.0 | 3.2 | 0.00 | 0.00 | 0.00 | 99 | 1055.1 |
| 20260906090708 | 20 | 331 | 1.6 | 4.8 | 0.00 | 0.00 | 0.00 | 99 | 1054.9 |
| 20260906085707 | 20 | 270 | 0.0 | 3.2 | 0.00 | 0.00 | 0.00 | 99 | 1054.9 |
| 20260906084706 | 20 | 0 | 0.0 | 0.0 | 0.00 | 0.00 | 0.00 | 99 | 1054.6 |
| 20260906083701 | 21 | 14 | 0.0 | 0.0 | 0.00 | 0.00 | 0.00 | 99 | 1054.6 |
| 20260906082657 | 21 | 94 | 4.8 | 4.8 | 0.00 | 0.00 | 0.00 | 99 | 1054.5 |
| 20260906081655 | 21 | 90 | 0.0 | 4.8 | 0.00 | 0.00 | 0.00 | 99 | 1055.0 |
| 20260906080652 | 20 | 98 | 0.0 | 4.8 | 0.00 | 0.00 | 0.00 | 99 | 1055.0 |
| 20260906075648 | 21 | 90 | 3.2 | 4.8 | 0.00 | 0.00 | 0.00 | 99 | 1055.0 |
| 20260906074643 | 21 | 106 | 6.4 | 6.4 | 0.00 | 0.00 | 0.00 | 99 | 1054.9 |
| 20260906073643 | 21 | 85 | 3.2 | 4.8 | 0.00 | 0.00 | 0.00 | 99 | 1054.8 |
| 20260906072640 | 20 | 90 | 3.2 | 4.8 | 0.00 | 0.00 | 0.00 | 99 | 1054.8 |
| 20260906071638 | 20 | 68 | 3.2 | 3.2 | 0.00 | 0.00 | 0.00 | 99 | 1055.0 |
| 20260906070634 | 21 | 40 | 0.0 | 3.2 | 0.00 | 0.00 | 0.00 | 99 | 1054.9 |
| 20260906065629 | 21 | 0 | 0.0 | 0.0 | 0.00 | 0.00 | 0.00 | 99 | 1055.2 |
| 20260906064626 | 21 | 6 | 0.0 | 1.6 | 0.00 | 0.00 | 0.00 | 99 | 1055.0 |
| 20260906063621 | 21 | 294 | 0.0 | 0.0 | 0.00 | 0.00 | 0.00 | 99 | 1055.3 |
| 20260906062619 | 21 | 279 | 0.0 | 1.6 | 0.00 | 0.00 | 0.00 | 99 | 1055.4 |
| 20260906061614 | 21 | 337 | 0.0 | 1.6 | 0.00 | 0.00 | 0.00 | 99 | 1055.5 |
| 20260906060610 | 21 | 6 | 0.0 | 0.0 | 0.00 | 0.00 | 0.00 | 99 | 1055.3 |
| 20260906055609 | 21 | 320 | 3.2 | 3.2 | 0.00 | 0.00 | 0.00 | 99 | 1055.2 |
| 20260906054604 | 21 | 15 | 0.0 | 0.0 | 0.00 | 0.00 | 0.00 | 99 | 1055.4 |
| 20260906053601 | 21 | 95 | 3.2 | 6.4 | 0.00 | 0.00 | 0.00 | 99 | 1055.8 |
| 20260906052558 | 21 | 63 | 1.6 | 3.2 | 0.00 | 0.00 | 0.00 | 99 | 1055.7 |
| 20260906051556 | 21 | 12 | 3.2 | 3.2 | 0.00 | 0.00 | 0.00 | 99 | 1055.8 |
| 20260906050552 | 21 | 337 | 0.0 | 0.0 | 0.00 | 0.00 | 0.00 | 99 | 1056.0 |
| 20260906045551 | 21 | 8 | 0.0 | 1.6 | 0.00 | 0.00 | 0.00 | 99 | 1055.8 |
| 20260906044548 | 21 | 0 | 0.0 | 1.6 | 0.00 | 0.00 | 0.00 | 99 | 1055.9 |
| 20260906043545 | 21 | 53 | 3.2 | 3.2 | 0.00 | 0.00 | 0.00 | 99 | 1055.9 |
| 20260906042539 | 21 | 0 | 0.0 | 0.0 | 0.00 | 0.00 | 0.00 | 99 | 1055.7 |
| 20260906041536 | 22 | 286 | 1.6 | 1.6 | 0.00 | 0.00 | 0.00 | 99 | 1055.5 |
| 20260906040532 | 22 | 15 | 0.0 | 1.6 | 0.00 | 0.00 | 0.00 | 99 | 1055.5 |
| 20260906035528 | 22 | 8 | 0.0 | 0.0 | 0.00 | 1.50 | 1.50 | 99 | 1055.5 |
| 20260906034524 | 22 | 0 | 0.0 | 0.0 | 0.00 | 1.50 | 1.50 | 99 | 1055.5 |
| 20260906033520 | 22 | 74 | 1.6 | 3.2 | 0.00 | 1.50 | 1.50 | 99 | 1055.5 |
| 20260906032518 | 22 | 90 | 3.2 | 4.8 | 0.00 | 1.50 | 1.50 | 99 | 1055.8 |
| 20260906031514 | 22 | 49 | 0.0 | 4.8 | 0.00 | 1.50 | 1.50 | 99 | 1055.7 |
| 20260906030509 | 22 | 95 | 3.2 | 4.8 | 0.00 | 1.50 | 1.50 | 99 | 1055.9 |
| 20260906025508 | 22 | 96 | 4.8 | 6.4 | 0.00 | 1.50 | 1.50 | 99 | 1055.9 |
| 20260906024507 | 22 | 68 | 3.2 | 4.8 | 0.00 | 1.50 | 1.50 | 99 | 1055.5 |
| 20260906023504 | 22 | 66 | 1.6 | 3.2 | 0.00 | 1.50 | 1.50 | 99 | 1055.7 |
| 20260906022459 | 22 | 57 | 0.0 | 4.8 | 0.00 | 1.50 | 1.50 | 99 | 1055.8 |
| 20260906021455 | 22 | 15 | 0.0 | 1.6 | 0.00 | 1.50 | 1.50 | 99 | 1055.9 |
| 20260906020450 | 22 | 5 | 3.2 | 3.2 | 0.00 | 1.50 | 1.50 | 99 | 1055.8 |
| 20260906015449 | 22 | 285 | 0.0 | 0.0 | 0.00 | 1.50 | 1.50 | 99 | 1055.8 |
| 20260906014449 | 22 | 23 | 0.0 | 1.6 | 0.00 | 1.50 | 1.50 | 99 | 1055.7 |
| 20260906013446 | 22 | 7 | 0.0 | 0.0 | 0.00 | 1.50 | 1.50 | 99 | 1055.5 |
| 20260906012442 | 22 | 0 | 1.6 | 3.2 | 0.00 | 1.50 | 1.50 | 99 | 1055.4 |
| 20260906011437 | 23 | 0 | 0.0 | 0.0 | 0.00 | 1.50 | 1.50 | 99 | 1055.3 |
| 20260906010434 | 23 | 0 | 0.0 | 0.0 | 0.00 | 1.50 | 1.50 | 98 | 1055.0 |
| 20260906005429 | 23 | 0 | 0.0 | 0.0 | 0.00 | 1.50 | 1.50 | 97 | 1054.9 |
| 20260906004428 | 23 | 345 | 0.0 | 0.0 | 0.00 | 1.50 | 1.50 | 97 | 1055.0 |
| 20260906003425 | 23 | 15 | 0.0 | 0.0 | 0.00 | 1.50 | 1.50 | 97 | 1054.8 |
| 20260906002425 | 23 | 23 | 1.6 | 3.2 | 0.00 | 1.50 | 1.50 | 95 | 1054.8 |
| 20260906001421 | 24 | 270 | 0.0 | 0.0 | 0.00 | 1.50 | 1.50 | 94 | 1054.7 |
| 20260906000418 | 24 | 270 | 0.0 | 0.0 | 0.00 | 1.50 | 1.50 | 93 | 1054.5 |
| 20260905235412 | 25 | 270 | 0.0 | 0.0 | 0.00 | 1.50 | 1.50 | 92 | 1054.6 |
| 20260905234409 | 25 | 262 | 0.0 | 0.0 | 0.00 | 1.50 | 1.50 | 91 | 1054.7 |
| 20260905233404 | 25 | 262 | 0.0 | 1.6 | 0.00 | 1.50 | 1.50 | 90 | 1054.5 |
| 20260905232400 | 26 | 166 | 0.0 | 0.0 | 0.00 | 1.50 | 1.50 | 88 | 1054.6 |
| 20260905231355 | 26 | 166 | 0.0 | 0.0 | 0.00 | 1.50 | 1.50 | 87 | 1054.5 |
| 20260905230355 | 26 | 166 | 0.0 | 0.0 | 0.00 | 1.50 | 1.50 | 85 | 1054.6 |
| 20260905225350 | 27 | 166 | 0.0 | 0.0 | 0.00 | 1.50 | 1.50 | 84 | 1054.6 |
| 20260905224347 | 27 | 66 | 0.0 | 0.0 | 0.00 | 1.50 | 1.50 | 80 | 1054.8 |
| 20260905223345 | 28 | 66 | 0.0 | 0.0 | 0.00 | 1.50 | 1.50 | 79 | 1054.7 |
| 20260905222344 | 28 | 66 | 0.0 | 0.0 | 0.00 | 1.50 | 1.50 | 80 | 1054.8 |
| 20260905221343 | 29 | 254 | 0.0 | 0.0 | 0.00 | 1.50 | 1.50 | 77 | 1054.8 |
| 20260905220341 | 30 | 71 | 3.2 | 4.8 | 0.00 | 1.50 | 1.50 | 74 | 1055.0 |
| 20260905215336 | 30 | 32 | 0.0 | 0.0 | 0.00 | 1.50 | 1.50 | 74 | 1055.1 |
| 20260905214332 | 30 | 151 | 0.0 | 4.8 | 0.00 | 1.50 | 1.50 | 76 | 1054.8 |
| 20260905213329 | 30 | 209 | 0.0 | 3.2 | 0.00 | 1.50 | 1.50 | 75 | 1054.9 |
| 20260905212324 | 30 | 270 | 1.6 | 1.6 | 0.00 | 1.50 | 1.50 | 75 | 1054.9 |
| 20260905211319 | 30 | 270 | 0.0 | 6.4 | 0.00 | 1.50 | 1.50 | 69 | 1054.9 |
| 20260905210315 | 31 | 90 | 0.0 | 1.6 | 0.00 | 1.50 | 1.50 | 72 | 1055.0 |
| 20260905205315 | 30 | 319 | 3.2 | 6.4 | 0.00 | 1.50 | 1.50 | 73 | 1054.9 |
| 20260905204311 | 30 | 286 | 1.6 | 1.6 | 0.00 | 1.50 | 1.50 | 77 | 1054.9 |
| 20260905203305 | 30 | 150 | 0.0 | 8.0 | 0.00 | 1.50 | 1.50 | 75 | 1055.1 |
| 20260905202301 | 30 | 278 | 0.0 | 4.8 | 0.00 | 1.50 | 1.50 | 70 | 1055.1 |
| 20260905201258 | 30 | 198 | 3.2 | 8.0 | 0.00 | 1.50 | 1.50 | 73 | 1055.1 |
| 20260905200255 | 29 | 270 | 0.0 | 1.6 | 0.00 | 1.50 | 1.50 | 74 | 1055.4 |
| 20260905195253 | 28 | 70 | 3.2 | 6.4 | 0.00 | 1.50 | 1.50 | 72 | 1055.7 |
| 20260905194248 | 28 | 350 | 3.2 | 4.8 | 0.00 | 1.50 | 1.50 | 73 | 1055.8 |
| 20260905193243 | 29 | 30 | 4.8 | 4.8 | 0.00 | 1.50 | 1.50 | 72 | 1056.1 |
| 20260905192241 | 27 | 21 | 0.0 | 6.4 | 0.00 | 1.50 | 1.50 | 74 | 1056.2 |
| 20260905191238 | 27 | 90 | 4.8 | 8.0 | 0.00 | 1.50 | 1.50 | 77 | 1056.3 |
| 20260905190236 | 26 | 81 | 6.4 | 9.7 | 0.00 | 1.50 | 1.50 | 79 | 1056.3 |
| 20260905185236 | 27 | 34 | 8.0 | 8.0 | 0.00 | 1.50 | 1.50 | 81 | 1056.7 |
| 20260905184235 | 27 | 59 | 8.0 | 8.0 | 0.00 | 1.50 | 1.50 | 81 | 1057.1 |
| 20260905183231 | 26 | 78 | 4.8 | 8.0 | 0.00 | 1.50 | 1.50 | 85 | 1057.1 |
| 20260905182230 | 25 | 0 | 6.4 | 8.0 | 0.00 | 1.50 | 1.50 | 88 | 1057.3 |
| 20260905181224 | 24 | 39 | 6.4 | 11.3 | 0.00 | 1.50 | 1.50 | 92 | 1057.5 |
| 20260905180220 | 23 | 52 | 6.4 | 9.7 | 0.00 | 1.50 | 1.50 | 98 | 1057.8 |
| 20260905175215 | 22 | 95 | 3.2 | 3.2 | 0.00 | 1.50 | 1.50 | 99 | 1058.2 |
| 20260905174212 | 22 | 21 | 4.8 | 8.0 | 0.00 | 1.50 | 1.50 | 99 | 1058.4 |
| 20260905173209 | 22 | 11 | 3.2 | 4.8 | 0.00 | 1.50 | 1.50 | 99 | 1058.6 |
| 20260905172209 | 22 | 45 | 19.3 | 19.3 | 0.00 | 1.50 | 1.50 | 99 | 1058.6 |
| 20260905171206 | 21 | 45 | 19.3 | 19.3 | 0.00 | 1.50 | 1.50 | 99 | 1058.6 |
| 20260905170203 | 21 | 45 | 19.3 | 19.3 | 0.00 | 1.50 | 1.50 | 99 | 1058.4 |
| 20260905165158 | 21 | 45 | 19.3 | 19.3 | 0.00 | 1.50 | 1.50 | 99 | 1058.4 |
| 20260905164159 | 20 | 45 | 19.3 | 19.3 | 0.00 | 1.50 | 1.50 | 99 | 1058.5 |
| 20260905163157 | 20 | 45 | 19.3 | 19.3 | 0.00 | 1.50 | 1.50 | 99 | 1058.5 |
| 20260905162152 | 20 | 45 | 19.3 | 19.3 | 0.00 | 1.50 | 1.50 | 99 | 1058.8 |
| 20260905161151 | 20 | 45 | 19.3 | 19.3 | 0.05 | 1.50 | 1.50 | 99 | 1058.8 |
| 20260905160149 | 20 | 45 | 19.3 | 19.3 | 1.63 | 1.47 | 1.47 | 99 | 1058.7 |
| 20260905155149 | 20 | 45 | 19.3 | 19.3 | 5.99 | 1.12 | 1.12 | 98 | 1059.6 |
| 20260905154145 | 21 | 98 | 14.5 | 43.5 | 0.71 | 0.13 | 0.13 | 93 | 1060.0 |
| 20260905153142 | 28 | 79 | 4.8 | 8.0 | 0.00 | 0.00 | 0.00 | 83 | 1058.2 |
| 20260905152137 | 30 | 306 | 1.6 | 3.2 | 0.00 | 0.00 | 0.00 | 80 | 1057.6 |
| 20260905151134 | 30 | 303 | 3.2 | 4.8 | 0.00 | 0.00 | 0.00 | 79 | 1057.4 |
| 20260905150133 | 29 | 0 | 0.0 | 4.8 | 0.00 | 0.00 | 0.00 | 82 | 1057.2 |
| 20260905145131 | 28 | 23 | 0.0 | 4.8 | 0.00 | 0.00 | 0.00 | 80 | 1057.4 |
| 20260905144125 | 29 | 276 | 0.0 | 3.2 | 0.00 | 0.00 | 0.00 | 81 | 1057.4 |
| 20260905143125 | 29 | 14 | 0.0 | 3.2 | 0.00 | 0.00 | 0.00 | 79 | 1057.6 |
| 20260905142124 | 28 | 54 | 0.0 | 0.0 | 0.00 | 0.00 | 0.00 | 80 | 1057.6 |
| 20260905141121 | 29 | 83 | 1.6 | 4.8 | 0.00 | 0.00 | 0.00 | 78 | 1057.7 |
| 20260905140121 | 28 | 342 | 0.0 | 3.2 | 0.00 | 0.00 | 0.00 | 82 | 1057.7 |
| 20260905135117 | 27 | 53 | 0.0 | 4.8 | 0.00 | 0.00 | 0.00 | 84 | 1057.9 |
| 20260905134116 | 26 | 101 | 3.2 | 3.2 | 0.00 | 0.00 | 0.00 | 86 | 1057.9 |
| 20260905133112 | 26 | 82 | 0.0 | 3.2 | 0.00 | 0.00 | 0.00 | 89 | 1057.9 |
| 20260905132113 | 24 | 26 | 0.0 | 4.8 | 0.00 | 0.00 | 0.00 | 94 | 1058.0 |
| 20260905131109 | 23 | 35 | 0.0 | 0.0 | 0.00 | 0.00 | 0.00 | 99 | 1057.9 |
| 20260905130109 | 22 | 69 | 1.6 | 3.2 | 0.00 | 0.00 | 0.00 | 99 | 1058.0 |
| 20260905125104 | 21 | 352 | 0.0 | 0.0 | 0.00 | 0.00 | 0.00 | 99 | 1058.2 |
| 20260905124102 | 21 | 48 | 0.0 | 3.2 | 0.00 | 0.00 | 0.00 | 99 | 1058.2 |
| 20260905123101 | 21 | 77 | 1.6 | 3.2 | 0.00 | 0.00 | 0.00 | 99 | 1058.2 |
| 20260905122100 | 21 | 15 | 0.0 | 1.6 | 0.00 | 0.00 | 0.00 | 99 | 1058.4 |
| 20260905121056 | 20 | 29 | 0.0 | 3.2 | 0.00 | 0.00 | 0.00 | 99 | 1058.1 |
| 20260905120057 | 20 | 0 | 0.0 | 0.0 | 0.00 | 0.00 | 0.00 | 99 | 1058.0 |
| 20260905115056 | 20 | 84 | 1.6 | 3.2 | 0.00 | 0.00 | 0.00 | 99 | 1057.9 |
| 20260905114055 | 20 | 49 | 0.0 | 3.2 | 0.00 | 0.00 | 0.00 | 99 | 1057.6 |
| 20260905113051 | 20 | 84 | 3.2 | 4.8 | 0.00 | 0.00 | 0.00 | 99 | 1057.7 |
| 20260905112048 | 20 | 66 | 1.6 | 3.2 | 0.00 | 0.00 | 0.00 | 99 | 1057.7 |
| 20260905111048 | 20 | 66 | 0.0 | 4.8 | 0.00 | 0.00 | 0.00 | 99 | 1057.2 |
| 20260905110042 | 20 | 29 | 0.0 | 1.6 | 0.00 | 0.00 | 0.00 | 99 | 1057.2 |
| 20260905105041 | 20 | 74 | 0.0 | 3.2 | 0.00 | 0.00 | 0.00 | 99 | 1057.2 |
| 20260905104037 | 20 | 8 | 0.0 | 1.6 | 0.00 | 0.00 | 0.00 | 99 | 1057.2 |
| 20260905103034 | 20 | 74 | 0.0 | 1.6 | 0.00 | 0.00 | 0.00 | 99 | 1057.3 |
| 20260905102032 | 20 | 52 | 3.2 | 3.2 | 0.00 | 0.00 | 0.00 | 99 | 1057.1 |
| 20260905101029 | 20 | 77 | 0.0 | 3.2 | 0.00 | 0.00 | 0.00 | 99 | 1057.0 |
| 20260905100025 | 20 | 68 | 3.2 | 3.2 | 0.00 | 0.00 | 0.00 | 99 | 1057.0 |